Regional Weather Roundup
Issued by NWS Nashville, TN

Home | Current Version | Previous Version | Text Only | Print | Product List | Glossary On
Versions: 1 2 3 4 5 6 7 8 9 10 11 12 13 14 15 16 17 18 19 20 21 22 23 24 25 26 27 28 29 30 31 32 33 34 35 36 37 38 39 40 41 42 43 44 45 46 47 48 49 50
000
ASUS44 KOHX 022310
RWROHX
MIDDLE TENNESSEE HOURLY WEATHER ROUNDUP
NATIONAL WEATHER SERVICE NASHVILLE TN
600 PM CDT MON MAY 02 2016

NOTE: "FAIR" INDICATES FEW OR NO CLOUDS BELOW 12,000 FEET WITH
NO SIGNIFICANT WEATHER AND/OR OBSTRUCTIONS TO VISIBILITY.

* THESE REPORTS ARE NOT UNDER NWS QUALITY CONTROL AND MAY NOT
  REPORT WEATHER SUCH AS PRECIPITATION AND FOG.


TNZ005>011-023>034-057-059-062>066-078-080-030000
...NORTHERN MIDDLE TENNESSEE...

CITY           SKY/WX    TMP DP  RH WIND       PRES   REMARKS
CLARKSVILLE    CLOUDY    60  56  86 CALM      29.93F
CROSSVILLE     CLOUDY    62  58  86 CALM      29.96R
NASHVILLE      CLOUDY    63  58  83 N6        29.93F
SMYRNA         CLOUDY    64  62  93 CALM      29.93F
SPARTA         MOSUNNY   64  61  88 SW3       29.92F
$$
TNZ056-058-060-061-075>077-079-093>097-030000
...SOUTHERN MIDDLE TENNESSEE...

CITY           SKY/WX    TMP DP  RH WIND       PRES   REMARKS
COLUMBIA       PTSUNNY  N/A N/A N/A CALM      29.91F
FAYETTEVILLE   SUNNY     66  61  82 N7        29.92F
MCMINNVILLE    CLOUDY    64  63  94 CALM      29.94F
SHELBYVILLE    CLOUDY    66  63  88 CALM      29.94F
TULLAHOMA      CLOUDY    63  63 100 N5        29.93F
WINCHESTER     CLOUDY    64  61  88 CALM      29.94F
$$


...KEY TO REMARKS...
VSB - VISIBILITY IN MILES
WCI - WIND CHILL INDEX
HX  - HEAT INDEX




USA.gov is the U.S. government's official web portal to all federal, state and local government web resources and services.